sat.trackr.live / text

‹ back to catalog

STARLINK-4339

NORAD 53054 · 2022-077M

PAYLOAD ACTIVE UNKNOWN

§ Identity

Operator
Country
US
Launch date
2022-07-11
Launch site
AFWTR
Launch vehicle
Mass (kg)
RCS (m²)

Purposes: comms

External: N2YO · Heavens-Above · Gunter

§ Orbital elements

Epoch: 2026-05-25T01:33:11.592000Z

Period
95.64 min
Inclination
97.4496°
Eccentricity
0.0001406
Mean motion
15.05648403 rev/d
Perigee alt
548.5 km
Apogee alt
550.5 km
Semi-major
6,927.7 km
B*
-1.9188e-5
RAAN
326.1620°
Arg perigee
106.1638°
Mean anomaly
253.9744°
Rev number
21,247

§ Raw data

STARLINK-43391 53054U 22077M   26145.06471750 -.00000335  00000+0 -19188-4 0  99962 53054  97.4496 326.1620 0001406 106.1638 253.9744 15.05648403212470

JSON: /api/v1/satellites/53054 · /tle

For live sub-satellite position, see the globe view (requires WebGL).

§ Visibility from observer

Set your observer location to see the next 7 days of passes ≥ 10°. The values pass through the URL so the page stays shareable.

No JS? Fill the form by hand. The geolocation button needs JavaScript.